Location: Rounton
(54.4000°N, 1.3500°W)
Time: 12:53:45
(UTC+00:00)

Transit 2A - Pass Details

Date: 01 December 2021
Orbit: 591 x 967 km, 66.7° (Epoch: 17 January)

Event Time Altitude Azimuth Distance (km) Brightness Sun altitude
Rises 23:46:51 0° 173° (S) 3,319 - -57.5°
Reaches altitude 10° 23:49:37 10° 160° (SSE) 2,455 - -57.5°
Maximum altitude 23:54:05 24° 108° (ESE) 1,756 - -57.6°
Drops below altitude 10° 23:58:51 10° 57° (ENE) 2,639 - -57.5°
Sets 00:01:55 0° 45° (NE) 3,625 - -57.5°
